Wind_Speed
6 6 6 6 6 6 6 7 8 8 8 7 7 6 6 5 6 6 5 6 6 5 5 4 4 4 4 3 3 4 4 5 5 5 5 5 4 4 5 5 4 4 4 3 2 1 0 1 1
7 7 7 7 6 6 7 7 9 9 9 8 8 7 7 6 6 5 5 6 6 5 4 3 2 3 3 3 3 4 4 4 5 5 4 3 3 3 3 4 3 3 3 3 2 1 0 1 1
8 8 8 8 8 7 8 9 9 10 10 9 9 8 8 7 6 5 5 6 6 5 4 3 2 2 3 3 3 3 4 4 4 4 3 3 2 2 2 3 3 3 3 2 2 1 1 1 1
9 9 9 9 8 9 9 10 10 10 11 10 10 9 9 8 7 6 6 6 5 5 4 4 3 2 3 3 3 2 3 3 3 3 2 2 2 1 2 2 3 3 3 2 2 1 1 1 2
9 9 9 9 10 10 10 11 11 11 12 11 11 10 9 9 8 7 7 7 6 5 5 4 4 3 3 3 3 2 2 3 3 3 2 1 1 1 1 2 2 3 3 3 2 2 2 2 3
10 10 10 10 11 11 11 11 11 12 12 12 11 11 10 10 9 8 7 7 7 6 5 5 5 5 4 3 3 3 2 3 3 2 2 1 0 0 1 1 2 3 3 3 3 3 3 4 4
10 10 11 11 12 12 12 12 12 12 12 11 11 11 11 10 10 9 8 8 8 7 6 6 6 6 5 4 4 3 2 3 2 2 1 2 2 2 2 2 3 4 4 4 3 4 4 5 5
9 10 11 11 12 12 13 13 12 13 12 12 11 12 11 10 10 9 9 9 8 8 8 7 7 7 7 6 5 4 3 3 3 3 2 2 2 2 2 3 3 4 4 4 4 5 5 6 6
9 9 10 11 12 12 13 13 12 13 13 13 12 12 12 11 10 10 10 9 9 9 8 7 6 7 7 7 6 6 5 5 4 4 4 3 3 3 2 3 4 4 5 5 5 5 6 6 7
9 9 10 11 12 12 12 13 13 13 13 13 13 13 13 12 12 11 10 10 10 10 9 8 8 8 8 8 8 7 7 6 6 5 5 4 3 4 3 4 4 5 5 6 6 6 6 6 6
9 10 10 11 11 11 13 13 13 13 13 14 13 13 13 14 13 12 11 11 11 11 10 10 10 9 9 9 8 8 8 7 7 6 5 4 4 4 3 4 5 5 6 6 6 7 7 6 6
9 10 10 10 11 12 13 13 14 14 14 14 14 14 14 14 14 13 13 12 12 12 11 11 11 10 11 10 9 9 8 8 8 7 6 5 5 5 4 4 5 5 6 6 6 7 6 6 6
9 10 10 11 11 12 12 13 14 15 15 15 15 15 15 15 15 15 14 13 13 13 12 12 12 11 11 10 9 10 9 9 8 7 6 6 5 5 5 5 5 6 6 6 6 6 6 6 6
10 10 11 12 12 12 12 13 14 15 15 15 16 15 16 16 15 15 15 14 13 13 13 12 12 12 11 11 11 11 11 10 9 8 7 6 6 6 6 6 6 6 7 7 7 7 7 7 6
11 12 11 11 13 13 13 14 15 15 15 15 16 16 17 16 16 16 15 15 14 14 13 13 12 12 12 12 12 11 11 10 9 8 8 7 7 6 6 6 6 6 7 7 7 7 7 6 6
11 12 13 12 13 14 14 14 15 15 15 15 16 16 17 17 16 16 16 16 16 15 14 13 12 12 13 13 12 11 10 10 9 9 8 7 7 7 7 6 7 7 7 7 7 7 7 7 7
11 11 12 13 13 14 15 16 15 16 16 16 16 17 16 17 16 16 16 16 15 15 14 14 13 13 13 13 12 11 10 10 9 8 8 7 7 7 7 7 7 8 7 8 8 7 7 7 7
10 10 11 12 13 14 14 15 15 15 14 14 14 15 16 16 16 16 15 15 16 15 15 14 14 14 14 13 12 11 11 10 10 9 9 8 8 8 8 7 7 8 8 8 8 7 7 7 7
11 10 11 12 12 12 12 13 13 14 14 14 14 14 15 16 15 15 15 15 16 15 15 15 14 14 14 13 12 12 12 11 11 11 10 9 8 8 8 8 8 8 8 8 7 7 7 7 7
11 12 12 12 12 12 12 12 13 14 15 14 14 15 15 16 15 14 14 15 15 15 16 15 15 15 14 14 13 13 13 12 11 11 11 10 9 9 9 9 8 8 7 7 7 7 6 7 7
12 12 12 12 12 13 13 13 13 14 15 14 14 14 15 15 15 15 15 15 16 15 16 16 16 16 15 15 14 13 13 12 11 11 11 10 10 10 9 9 8 8 8 7 7 7 6 7 7
12 12 12 12 12 12 13 13 13 13 14 14 14 14 15 16 16 16 15 16 16 16 16 16 16 16 15 15 14 13 12 12 11 11 11 10 10 10 9 9 9 8 8 7 7 7 7 7 7
12 12 12 12 13 13 13 13 13 13 13 13 14 14 15 15 15 15 15 15 16 17 16 16 16 16 16 15 14 14 14 13 12 12 12 12 11 11 10 9 9 9 8 8 8 7 7 7 7
12 12 12 12 13 13 12 13 13 13 13 13 13 14 15 15 16 16 16 16 16 16 16 16 16 16 16 15 14 14 14 13 13 12 12 12 12 11 10 9 9 9 8 8 8 7 7 7 8
12 12 12 12 13 13 12 13 13 13 14 14 14 14 14 15 15 15 15 16 15 15 15 16 16 16 15 15 15 15 14 13 13 12 12 11 11 11 10 9 9 8 8 8 8 8 8 8 8
12 13 13 13 13 13 14 14 13 13 14 14 15 15 14 15 15 14 14 15 15 15 16 15 16 16 15 15 15 15 14 13 13 12 12 11 10 10 9 9 9 8 8 8 8 8 9 9 9
13 14 13 13 14 14 14 14 14 13 13 14 15 15 14 14 15 15 15 15 15 15 15 16 16 16 15 15 15 15 15 14 14 13 12 12 11 10 10 10 9 9 9 9 8 9 9 10 10
14 14 14 14 14 14 14 14 13 13 13 13 14 14 14 13 14 15 15 15 15 16 16 16 15 15 15 16 15 15 15 15 15 14 12 12 11 10 10 10 10 10 10 9 9 9 9 10 10
15 15 15 15 14 14 14 14 13 14 14 13 14 14 13 13 14 14 15 15 16 16 17 16 16 16 16 16 16 16 16 16 15 14 13 13 12 11 11 11 11 11 11 10 10 10 10 10 10
15 15 16 16 15 15 15 15 13 14 14 13 14 14 14 14 14 14 15 16 16 17 17 17 16 16 16 17 16 15 15 15 15 15 14 14 13 12 12 12 11 11 11 11 11 10 10 10 11
Wind_Direction
218 219 221 221 220 219 217 213 209 206 200 194 192 190 188 184 180 177 175 168 164 154 150 141 148 144 143 141 128 117 116 118 116 111 111 113 101 90 79 70 69 73 68 61 69 94 154 184 197
223 226 227 226 225 221 216 209 211 211 205 200 202 203 200 196 191 184 175 166 166 163 159 164 167 162 168 161 138 126 123 124 124 121 115 113 98 85 72 60 62 64 58 53 54 60 323 251 265
224 227 230 230 227 223 218 215 216 214 209 208 209 205 199 194 195 190 180 174 171 172 172 170 172 179 181 164 149 137 138 131 130 126 119 109 99 80 61 48 42 35 35 32 24 345 312 295 293
226 228 232 232 228 223 222 220 218 216 213 213 211 208 205 199 198 201 197 189 184 186 186 183 188 178 174 164 164 161 157 148 146 142 134 111 89 61 51 38 22 14 12 3 356 318 300 307 300
229 232 234 231 226 227 224 221 221 220 216 212 210 212 211 206 202 205 204 204 198 195 198 200 199 200 205 191 188 182 174 165 157 156 154 137 92 55 44 34 18 7 358 346 334 311 291 296 295
234 233 235 233 230 229 222 220 225 223 214 213 214 212 212 211 209 208 211 208 201 199 203 200 198 211 210 205 213 215 189 173 164 176 183 191 216 350 0 2 355 358 350 336 332 316 306 292 293
234 234 234 233 234 233 226 222 224 224 224 220 218 215 213 213 214 215 216 208 205 208 210 209 212 214 214 220 220 217 197 186 183 197 213 241 257 292 305 328 331 337 339 335 331 322 310 299 293
238 238 234 233 234 231 227 224 224 224 222 222 221 219 217 216 216 215 214 210 209 213 218 221 219 218 222 224 218 219 218 220 221 217 241 269 276 286 299 312 320 323 329 325 317 314 310 303 295
241 237 235 233 233 232 227 224 224 224 224 222 222 219 215 217 218 220 220 216 215 218 224 225 226 227 233 234 233 230 235 236 234 232 239 264 277 284 294 311 317 318 320 317 316 314 312 304 299
239 237 237 236 234 230 225 224 225 225 225 223 223 220 219 218 220 223 221 223 223 223 228 232 234 235 236 236 235 231 234 239 239 237 241 262 281 291 298 312 314 315 320 321 319 313 308 302 299
239 239 239 237 233 229 226 223 223 227 226 224 223 221 222 220 223 224 223 226 228 228 230 232 232 232 235 237 235 233 233 239 237 232 243 254 269 280 293 304 311 313 317 321 319 314 307 300 297
244 241 240 237 230 228 227 224 225 226 227 226 224 222 221 225 227 228 227 228 229 229 230 235 235 234 236 239 234 234 238 238 233 236 240 256 263 269 282 291 301 305 310 314 317 316 307 303 299
241 239 241 238 232 230 226 224 226 228 226 227 227 225 224 228 230 229 230 231 231 232 232 237 235 234 235 236 239 238 237 232 233 236 237 254 260 261 264 277 287 295 301 304 305 308 305 304 299
238 235 238 235 232 230 229 226 227 229 229 228 228 226 227 229 229 230 231 232 233 234 235 237 233 233 234 236 236 234 233 233 238 241 247 258 262 260 262 271 280 289 294 298 301 303 302 303 301
240 237 238 231 229 228 228 227 227 229 231 231 230 229 230 230 230 231 233 233 233 235 236 237 233 234 234 236 235 234 234 235 239 246 253 258 261 263 264 272 281 289 293 296 301 301 302 300 299
242 239 240 239 232 228 229 228 232 233 234 234 231 231 233 232 232 233 234 233 233 236 235 236 234 236 236 236 237 237 235 238 241 246 249 255 260 261 266 270 280 288 288 291 297 298 301 300 299
250 248 244 242 238 233 233 232 234 235 236 236 235 235 234 231 230 231 232 231 231 233 234 236 237 235 235 233 234 233 232 237 239 244 246 254 261 265 269 271 280 284 285 290 292 293 300 305 303
253 252 249 245 241 238 238 236 236 235 235 236 237 236 236 231 230 231 231 232 231 233 235 237 237 235 232 231 232 233 235 238 240 246 246 251 259 268 274 272 277 281 283 289 291 295 299 304 304
251 251 249 247 245 242 240 239 241 241 240 236 235 235 235 235 233 234 233 234 233 232 232 234 235 234 233 233 234 236 238 241 245 247 246 250 259 268 272 274 276 278 281 285 290 295 302 308 308
250 249 249 248 247 247 247 246 243 243 240 236 237 239 239 239 239 237 236 237 237 234 231 234 238 236 236 236 237 240 241 242 246 248 245 249 256 263 268 270 270 273 277 282 289 297 304 311 313
247 245 246 248 247 249 250 250 248 243 239 239 240 241 240 238 236 240 243 243 240 236 234 234 236 236 236 236 238 243 239 241 247 243 240 246 253 259 265 269 265 267 272 278 287 293 301 309 312
244 245 246 246 248 251 253 251 249 245 239 240 242 242 239 239 239 241 242 245 241 237 236 237 238 234 234 234 236 238 240 243 249 246 245 245 248 254 261 261 261 262 267 275 281 286 292 300 307
242 243 245 247 247 249 251 250 248 246 242 240 241 241 241 241 242 242 241 242 239 237 238 241 238 236 235 236 238 239 244 246 249 251 253 253 252 252 253 256 260 259 264 272 276 280 286 295 304
242 242 245 245 245 246 249 249 244 243 242 241 241 243 243 243 243 243 244 244 241 237 238 241 240 239 237 237 241 243 247 246 247 249 251 253 255 251 252 256 259 258 263 271 276 279 282 291 301
241 239 243 243 243 246 247 247 246 243 242 242 243 245 244 244 245 242 245 243 240 238 239 241 240 238 238 239 241 244 245 245 246 249 253 253 253 252 251 253 255 257 263 268 275 280 286 292 296
241 239 241 244 246 248 249 251 249 246 245 245 244 245 246 247 246 242 243 242 240 238 239 242 241 239 240 241 242 244 245 246 247 250 254 256 253 252 253 253 250 256 262 267 272 278 284 289 291
241 242 243 247 250 251 251 252 252 248 247 245 244 246 248 245 245 243 240 239 235 237 241 242 242 241 241 240 241 245 246 248 247 247 254 254 250 250 248 250 252 257 264 268 273 279 283 287 290
242 242 241 243 248 252 252 255 256 252 251 248 247 247 246 245 245 245 244 235 233 238 240 241 240 240 242 243 243 246 247 247 246 247 250 250 248 250 247 247 253 259 264 266 270 277 282 285 288
242 240 239 242 247 250 254 257 255 253 248 246 246 247 246 246 247 246 243 238 238 240 240 241 242 242 243 244 246 245 244 243 244 246 247 248 248 252 250 249 254 260 263 265 270 274 280 283 287
244 244 243 243 247 250 253 258 255 252 248 245 244 243 242 243 243 242 243 240 238 240 239 241 243 243 244 246 246 244 245 243 243 244 246 245 247 250 252 251 254 261 265 265 267 273 280 284 289
Height
5888 5889 5891 5892 5894 5894 5894 5895 5896 5897 5898 5899 5900 5900 5901 5902 5903 5906 5904 5903 5903 5903 5903 5903 5903 5903 5903 5903 5903 5903 5903 5902 5902 5902 5902 5902 5901 5901 5901 5901 5901 5900 5900 5900 5899 5899 5899 5899 5899
5887 5889 5890 5892 5892 5893 5894 5894 5895 5896 5897 5898 5899 5900 5901 5901 5902 5902 5902 5902 5903 5903 5903 5903 5903 5903 5904 5904 5903 5903 5903 5903 5902 5902 5902 5902 5902 5902 5902 5901 5901 5900 5900 5900 5899 5899 5899 5899 5899
5886 5887 5889 5890 5891 5892 5893 5893 5894 5894 5895 5897 5898 5899 5900 5901 5901 5901 5902 5902 5903 5903 5903 5903 5903 5903 5903 5903 5903 5903 5903 5903 5903 5903 5903 5903 5902 5902 5902 5902 5901 5901 5900 5900 5899 5899 5899 5899 5898
5885 5887 5888 5889 5889 5890 5891 5891 5892 5893 5894 5895 5897 5898 5899 5900 5900 5901 5901 5901 5902 5902 5903 5903 5903 5903 5903 5903 5903 5903 5903 5903 5903 5903 5903 5903 5903 5902 5902 5902 5901 5901 5900 5900 5899 5899 5898 5898 5898
5883 5885 5886 5887 5887 5888 5889 5890 5890 5891 5893 5894 5895 5896 5897 5898 5899 5900 5900 5901 5901 5902 5902 5902 5903 5903 5903 5903 5903 5903 5903 5903 5903 5903 5903 5903 5903 5903 5902 5902 5901 5900 5900 5899 5899 5898 5898 5898 5897
5882 5883 5884 5884 5885 5886 5887 5888 5889 5890 5891 5892 5894 5895 5896 5897 5898 5898 5899 5900 5901 5901 5901 5902 5902 5902 5902 5902 5903 5903 5903 5903 5903 5903 5903 5903 5903 5903 5902 5902 5901 5900 5900 5899 5898 5898 5897 5897 5896
5881 5881 5882 5882 5883 5884 5885 5886 5887 5889 5890 5891 5892 5893 5894 5895 5896 5897 5898 5899 5899 5900 5901 5901 5901 5901 5902 5902 5902 5902 5902 5902 5903 5903 5903 5903 5902 5902 5902 5901 5900 5900 5899 5898 5898 5897 5897 5896 5896
5877 5879 5879 5880 5881 5882 5883 5884 5885 5887 5888 5889 5890 5892 5893 5894 5895 5896 5897 5898 5898 5899 5900 5900 5900 5901 5901 5901 5901 5902 5902 5902 5902 5902 5902 5902 5902 5902 5901 5901 5900 5899 5899 5898 5897 5897 5896 5895 5895
5875 5878 5877 5878 5879 5880 5881 5882 5884 5885 5886 5887 5889 5890 5892 5893 5893 5894 5895 5896 5897 5898 5898 5899 5899 5900 5900 5900 5900 5901 5901 5901 5902 5901 5901 5901 5901 5901 5901 5900 5899 5899 5898 5897 5896 5896 5895 5894 5894
5874 5875 5875 5876 5876 5877 5878 5880 5881 5883 5884 5885 5887 5888 5889 5891 5892 5893 5894 5894 5895 5896 5897 5898 5898 5898 5899 5899 5899 5900 5900 5900 5901 5901 5901 5901 5900 5900 5900 5899 5899 5898 5897 5896 5896 5895 5894 5893 5893
5871 5872 5872 5872 5873 5874 5876 5877 5879 5880 5882 5884 5885 5886 5887 5888 5890 5891 5892 5893 5893 5894 5895 5896 5896 5897 5897 5898 5898 5898 5899 5899 5900 5900 5900 5900 5900 5900 5899 5899 5898 5897 5896 5896 5895 5894 5893 5892 5891
5868 5869 5869 5870 5871 5872 5874 5875 5877 5878 5880 5881 5882 5884 5885 5886 5888 5889 5890 5891 5892 5893 5894 5894 5895 5895 5896 5896 5897 5897 5898 5898 5898 5899 5899 5899 5899 5899 5898 5898 5897 5897 5896 5895 5894 5893 5892 5891 5890
5866 5867 5867 5867 5869 5870 5872 5873 5874 5876 5877 5878 5880 5881 5882 5884 5885 5886 5887 5888 5889 5890 5891 5892 5893 5893 5894 5895 5895 5896 5896 5897 5897 5898 5898 5898 5898 5898 5897 5897 5896 5896 5895 5894 5893 5892 5891 5889 5888
5864 5864 5865 5865 5867 5868 5869 5871 5872 5873 5875 5876 5877 5878 5880 5881 5883 5884 5885 5886 5887 5888 5889 5890 5891 5891 5892 5893 5894 5894 5895 5896 5896 5897 5897 5897 5897 5897 5896 5896 5895 5894 5894 5893 5892 5891 5890 5888 5887
5861 5862 5863 5863 5864 5866 5868 5869 5870 5871 5872 5873 5875 5876 5877 5878 5880 5881 5882 5883 5884 5886 5887 5887 5888 5889 5890 5891 5892 5892 5893 5894 5894 5895 5895 5895 5895 5895 5895 5894 5894 5893 5892 5891 5891 5890 5888 5887 5886
5859 5860 5861 5861 5862 5864 5867 5867 5867 5869 5870 5871 5872 5873 5874 5875 5877 5878 5879 5880 5882 5883 5884 5885 5886 5887 5888 5889 5890 5891 5891 5892 5893 5893 5893 5893 5893 5893 5893 5893 5892 5892 5891 5890 5889 5888 5887 5886 5885
5857 5858 5858 5859 5860 5861 5863 5864 5865 5866 5867 5868 5869 5870 5871 5872 5873 5875 5876 5877 5879 5880 5882 5883 5884 5885 5886 5887 5888 5889 5890 5890 5891 5891 5892 5892 5892 5892 5891 5891 5890 5890 5889 5889 5888 5887 5886 5884 5883
5855 5856 5856 5857 5857 5859 5860 5861 5862 5863 5864 5865 5866 5867 5868 5869 5871 5872 5873 5874 5876 5877 5879 5880 5881 5882 5883 5885 5886 5887 5887 5888 5889 5889 5890 5890 5890 5890 5890 5889 5889 5888 5888 5887 5886 5885 5884 5883 5882
5852 5853 5854 5854 5855 5856 5857 5858 5859 5860 5861 5862 5863 5864 5866 5867 5868 5869 5870 5872 5873 5875 5876 5877 5879 5880 5881 5882 5883 5884 5885 5886 5887 5887 5887 5888 5888 5888 5888 5887 5887 5887 5886 5886 5885 5884 5883 5882 5880
5849 5851 5851 5852 5852 5853 5854 5855 5856 5857 5858 5859 5860 5861 5863 5864 5865 5866 5868 5869 5871 5872 5873 5875 5876 5877 5878 5880 5881 5882 5883 5884 5884 5885 5885 5885 5886 5886 5886 5886 5885 5885 5885 5884 5883 5883 5882 5880 5879
5846 5848 5849 5849 5850 5850 5851 5853 5853 5854 5855 5856 5857 5858 5859 5861 5862 5864 5865 5867 5868 5869 5870 5872 5873 5874 5876 5877 5878 5879 5880 5881 5882 5882 5883 5883 5883 5884 5884 5883 5883 5883 5883 5883 5882 5881 5880 5879 5878
5843 5845 5846 5846 5847 5848 5849 5850 5850 5850 5852 5853 5854 5856 5857 5858 5860 5861 5862 5863 5865 5866 5868 5869 5870 5871 5873 5875 5876 5877 5878 5879 5879 5880 5880 5881 5881 5882 5882 5881 5882 5882 5881 5881 5880 5880 5879 5878 5877
5841 5841 5843 5843 5844 5845 5846 5847 5848 5848 5849 5851 5852 5853 5854 5855 5857 5858 5859 5861 5861 5863 5864 5866 5867 5869 5870 5872 5873 5874 5875 5876 5877 5877 5878 5878 5879 5879 5880 5879 5879 5880 5880 5879 5879 5878 5877 5876 5875
5837 5838 5839 5840 5841 5843 5843 5844 5845 5845 5846 5847 5849 5850 5851 5852 5853 5855 5856 5857 5859 5860 5862 5863 5865 5866 5867 5869 5870 5871 5873 5873 5874 5875 5875 5876 5877 5877 5877 5877 5877 5877 5878 5877 5877 5876 5875 5875 5873
5834 5836 5837 5837 5838 5839 5840 5840 5843 5843 5843 5844 5845 5846 5847 5848 5850 5851 5852 5854 5855 5857 5858 5860 5862 5863 5865 5866 5867 5868 5870 5871 5871 5872 5873 5873 5874 5875 5875 5875 5875 5876 5875 5875 5875 5874 5874 5873 5872
5831 5832 5834 5835 5836 5837 5837 5837 5839 5839 5840 5840 5842 5843 5844 5845 5846 5848 5849 5850 5852 5854 5855 5857 5858 5860 5861 5863 5864 5865 5867 5868 5869 5869 5870 5871 5871 5872 5872 5873 5873 5873 5873 5873 5873 5872 5871 5871 5870
5827 5828 5831 5832 5832 5833 5834 5835 5836 5836 5836 5837 5838 5839 5840 5842 5843 5844 5846 5847 5849 5850 5852 5853 5855 5856 5858 5859 5861 5862 5864 5865 5866 5867 5868 5868 5869 5869 5870 5871 5871 5871 5871 5871 5870 5870 5869 5868 5867
5824 5825 5827 5828 5829 5830 5831 5831 5832 5832 5833 5834 5834 5836 5837 5838 5839 5841 5842 5843 5845 5847 5848 5850 5851 5853 5855 5856 5857 5859 5860 5862 5863 5864 5865 5866 5866 5867 5868 5868 5868 5869 5869 5868 5868 5867 5867 5866 5865
5820 5822 5822 5824 5825 5827 5828 5830 5829 5829 5829 5830 5831 5832 5833 5835 5836 5837 5839 5840 5841 5843 5845 5846 5848 5850 5851 5853 5854 5855 5857 5858 5860 5861 5862 5863 5864 5864 5865 5865 5866 5866 5866 5866 5866 5865 5865 5864 5863
5816 5817 5819 5821 5822 5822 5824 5827 5824 5825 5825 5827 5828 5829 5830 5831 5833 5834 5835 5836 5838 5839 5841 5843 5844 5846 5848 5849 5850 5852 5853 5855 5856 5857 5859 5860 5861 5861 5862 5862 5863 5863 5863 5863 5863 5863 5862 5861 5860